Delta Virtual Airport Information Service

Grand Rapids Gerald R. Ford International Airport

ICAO: KGRR Country: United States
Latitude: 42.8808 Longitude: -85.5228
Latest Arrival : UAL1239 (KDEN-KGRR) Latest Departure : DAL1493 (2) (KGRR-KDTW)


WX CaptureLIVE
Data provided by noaa.gov | Fetched at 05:08:58

METAR : KGRR 300953Z 19009KT 10SM FEW040 SCT100 11/09 A2957 RMK AO2 SLP014 T01060094

TAF : KGRR 300530Z 3006/0106 22007KT P6SM -SHRA SCT025 BKN040 FM301800 28014G24KT P6SM +SHRA SCT025 BKN040 FM010100 27007KT P6SM -SHRA BKN035


Runway Data for KGRR
Data provided by openaviationdata.com

Runway ID Mag Var Hdg Length Elevation Surface ILS Freq ILS Id ILS Slope
08L -4 85° 4992 ft 794 ft Concrete -- -- --
08R -4 85° 9984 ft 794 ft Concrete 108.3 ICYZ 3
17 -4 175° 8503 ft 794 ft Concrete -- -- --
26L -4 265° 9984 ft 794 ft Concrete 109.7 IGRR 3
26R -4 265° 4992 ft 794 ft Concrete -- -- --
35 -4 355° 8503 ft 794 ft Concrete 111.9 IDVS 3

Grand Rapids Gerald R. Ford International Airport, United States
Use only for reference purposes



Not for navigational purposes.